Home > Weather > Sterling Heights > Past weeks

Flag for U.S.A. Weather for the Past 2 Weeks in Sterling Heights, Michigan, U.S.A.

Now
38 °F

Mostly cloudy.


Feels Like: 33 °F
Forecast: 29 / 35 °F
Wind: 7 mph from West

Location: Selfridge Air National Guard Base

Current Time: Feb 8, 2016 at 9:37:44 PM

Latest Report: Feb 8, 2016 at 7:58 PM


Visibility: 12 mi

Pressure: 29.58 "Hg

Humidity: 67%

Dew point: 28 °F

Location of Sterling HeightsLocation

Historic Weather in Sterling Heights — Graph

°F

Sterling Heights Temperature Yesterday

Maximum temperature yesterday: 46 °F (at 7:58 PM)
Minimum temperature yesterday: 28 °F (at 5:58 AM)
Average temperature yesterday: 38 °F

High & Low Weather Summary for the Past Weeks

 TemperatureHumidityPressure
High52 °F (Feb 3, 7:58 AM)100% (Jan 31, 3:58 PM)30.37 "Hg (Jan 31, 3:58 PM)
Low18 °F (Feb 5, 6:58 AM)39% (Feb 6, 1:58 PM)29.46 "Hg (Feb 3, 5:58 AM)
Average35 °F76%29.90 "Hg
* Reported Jan 24 7:58 PM — Feb 8 7:58 PM, Sterling Heights, Weather by CustomWeather, © 2016

Note: Actual official high and low records may vary slightly from our data, if they occured in-between our weather recording intervals... More about our weather records

Advertising

Sterling Heights Weather History for the Previous 24 Hours

 ConditionsComfort  
Time TempWeatherWind HumidityBarometerVisibility
7:58 PM
Mon, Feb 8
38 °FMostly cloudy.7 mph67%29.58 "Hg12 mi
6:58 PM37 °FMostly cloudy.3 mph72%29.58 "Hg12 mi
5:58 PM38 °FMostly cloudy.5 mph73%29.57 "Hg10 mi
4:58 PM39 °FMore clouds than sun.10 mph62%29.57 "Hg7 mi
3:58 PM40 °FOvercast.7 mph59%29.56 "Hg7 mi
2:58 PM40 °FLight rain. More clouds than sun.8 mph65%29.55 "Hg7 mi
1:58 PM40 °FDrizzle. Overcast.7 mph77%29.56 "Hg7 mi
12:58 PM40 °FDrizzle. Overcast.1 mph75%29.57 "Hg7 mi
11:58 AM40 °FOvercast.6 mph77%29.59 "Hg7 mi
10:58 AM39 °FMostly cloudy.6 mph79%29.60 "Hg7 mi
9:58 AM39 °FCloudy.7 mph81%29.61 "Hg10 mi
9:48 AM39 °FCloudy.6 mph81%29.59 "Hg7 mi
8:58 AM37 °FFog.No wind98%29.62 "Hg4 mi
7:58 AM35 °FFog.2 mph97%29.62 "Hg5 mi
6:58 AM36 °FPartly cloudy.2 mph96%29.62 "Hg10 mi
5:58 AM37 °FLight rain. Passing clouds.3 mph92%29.63 "Hg10 mi
4:58 AM36 °FLight rain. Passing clouds.No wind91%29.63 "Hg10 mi
3:58 AM37 °FOvercast.5 mph83%29.64 "Hg10 mi
2:58 AM37 °FPassing clouds.5 mph84%29.66 "Hg10 mi
1:58 AM37 °FOvercast.6 mph85%29.67 "Hg10 mi
12:58 AM37 °FOvercast.7 mph83%29.68 "Hg10 mi
11:58 PM
Sun, Feb 7
39 °FPassing clouds.6 mph78%29.69 "Hg10 mi
10:58 PM40 °FPassing clouds.7 mph76%29.71 "Hg10 mi
9:58 PM40 °FPartly cloudy.8 mph75%29.74 "Hg10 mi
Weather by CustomWeather, © 2016

See weather overviewHow to use our weather pages